Location: Newark
(47.5833°N, 8.1500°E)
Time: 12:34:36
(UTC+00:00)

Transit 2A - Pass Details

Date: 28 October 2020
Orbit: 595 x 964 km, 66.7° (Epoch: 27 November)

Event Time Altitude Azimuth Distance (km) Brightness Sun altitude
Rises 05:06:51 0° 309° (NW) 3,614 - -10.5°
Exits shadow 05:08:36 - 318° (NW) 3,165 8.7 -10.2°
Reaches altitude 10° 05:11:32 10° 340° (NNW) 2,609 8.5 -9.7°
Maximum altitude 05:13:39 12° 1° (N) 2,446 8.5 -9.4°
Drops below altitude 10° 05:15:43 10° 21° (NNE) 2,535 8.8 -9.0°
Sets 05:20:05 0° 53° (NE) 3,376 10.0 -8.3°
